Regional Weather Roundup
Issued by NWS Jackson, KY

Home | Current Version | Previous Version | Graphics & Text | Print | Product List | Glossary On
Versions: 1 2 3 4 5 6 7 8 9 10 11 12 13 14 15 16 17 18 19 20 21 22 23 24 25 26 27 28 29 30 31 32 33 34 35 36 37 38 39 40 41 42 43 44 45 46 47 48 49 50
000
ASUS43 KJKL 231010
RWRJKL

EAST KENTUCKY HOURLY WEATHER ROUNDUP
NATIONAL WEATHER SERVICE JACKSON KY
600 AM EDT MON APR 23 2018

NOTE: "FAIR" INDICATES FEW OR NO CLOUDS BELOW 12,000 FEET WITH
NO SIGNIFICANT WEATHER AND/OR OBSTRUCTIONS TO VISIBILITY.

* THESE REPORTS ARE NOT UNDER NWS QUALITY CONTROL AND MAY NOT
  REPORT WEATHER SUCH AS PRECIPITATION AND FOG.

KYZ079-080-083-085-087-088-110-112-115-119-120-231100
...EASTERN KENTUCKY...

CITY           SKY/WX    TMP DP  RH WIND       PRES   REMARKS
JACKSON        LGT RAIN  58  47  66 SE9       30.08R
LONDON         LGT RAIN  54  50  86 E7        30.03S
SOMERSET*      LGT RAIN  52  52 100 E8        30.01F
MONTICELLO*    LGT RAIN  55  52  89 VRB5      30.00F
WILLIAMSBURG*    N/A     55  52  88 E7        30.01S
MIDDLESBORO*   RAIN      56  50  80 SE9G23    30.06F
HARLAN APT*    CLOUDY    57  47  69 SE14G26   30.05F
PIKE CO APT*   LGT RAIN  60  45  58 SE14      30.11R
BIG SANDY APT* CLOUDY    60  45  57 SE6       30.11R
MOREHEAD APT*  CLOUDY    59  41  51 E7        30.09R
ASHLAND*         N/A     55  42  61 E6        30.12S
$$

KYZ035-036-041-042-044-050-067-078-099-231100
...CENTRAL KENTUCKY...

CITY           SKY/WX    TMP DP  RH WIND       PRES   REMARKS
MT STERLING*   RAIN      55  46  71 SE6       30.08S
FLEMING/MASON* MOCLDY    54  40  59 E7        30.10R
DANVILLE*      LGT RAIN  52  50  93 CALM      30.04S
LEXINGTON      RAIN      52  46  80 NE8       30.05F
FRANKFORT      RAIN      51  44  77 E7        30.04S
LOUISVILLE     RAIN      52  48  86 E6        30.03S
GLASGOW*       CLOUDY    55  52  90 E14G20    29.95S
BOWLING GREEN  LGT RAIN  57  55  93 E15G23    29.92R
$$

KYZ091>093-OHZ055-061-077-WVZ005-015-034-035-042-231100
...SOUTHERN OHIO/WEST VIRGINIA...

CITY           SKY/WX    TMP DP  RH WIND       PRES   REMARKS
COVINGTON      CLOUDY    54  33  45 E7        30.07S
COLUMBUS       MOCLDY    52  35  52 E8        30.16S
DAYTON         MOCLDY    51  34  52 E12       30.12S
WILMINGTON       N/A     48  35  60 E9        30.11S
HUNTINGTON       N/A     54  41  61 E6        30.12S
CHARLESTON       N/A     58  40  51 E8        30.15S
PINEVILLE*     CLOUDY    58  45  61 MISG      30.22R
BECKLEY          N/A     51  43  74 SE13G28   30.19S
BLUEFIELD      CLOUDY    51  43  74 VRB6G21   30.21R
LOGAN CO APT*  PTSUNNY   59  43  55 SE6G20    30.14R
$$

VAZ002-007-008-TNZ017-027-036-066-071-231100
...SOUTHWEST VIRGINIA/EAST TENNESSEE...

CITY           SKY/WX    TMP DP  RH WIND       PRES   REMARKS
WISE*          RAIN      52  50  93 S9G18     30.14S
JONESVILLE*    CLOUDY    57  48  72 E9G16     30.11F
ABINGDON*      CLOUDY    57  48  72 SE17      30.17S
BRISTOL        LGT RAIN  58  49  72 E16G25    30.13S
MORRISTOWN*    CLOUDY    55  52  88 E15G22    30.06S
SEVIERVILLE*   PTSUNNY   57  50  77 E6G14     30.00S
KNOXVILLE      LGT RAIN  55  54  96 NE13      29.98S
LAFOLLETTE*    CLOUDY    54  52  94 NE3       30.07R
OAK RIDGE      RAIN      55  55 100 VRB3      30.01F
CROSSVILLE     LGT RAIN  52  50  93 SE10G18   29.98S FOG
NASHVILLE      LGT RAIN  58  56  93 SE8       29.88R FOG
$$

...KEY TO REMARKS...
VSB - VISIBILITY IN MILES
WCI - WIND CHILL INDEX
HX  - HEAT INDEX

$$



USA.gov is the U.S. government's official web portal to all federal, state and local government web resources and services.